Location: Leeds
(37.2390°N, 113.3580°W)
Time: 15:04:39
(UTC-06:00)

ISS - All Passes

Search period start: 23 August 2016 00:00
Search period end: 02 September 2016 00:00
Orbit: 401 x 403 km, 51.6° (Epoch: 23 August)

Date Brightness Start Highest point End Pass type
(mag) Time Alt. Az. Time Alt. Az. Time Alt. Az.
23 Aug - 10:43:15 10° SSW 10:46:20 41° SE 10:49:26 10° ENE daylight
23 Aug - 12:20:18 10° W 12:22:53 21° NNW 12:25:28 10° NNE daylight
23 Aug - 17:12:45 10° NNW 17:15:31 25° NNE 17:18:16 10° E daylight
23 Aug - 18:49:00 10° WNW 18:51:57 32° SW 18:54:53 10° SSE daylight
24 Aug - 09:50:58 10° S 09:53:25 20° SE 09:55:51 10° E daylight
24 Aug - 11:26:37 10° WSW 11:29:39 36° NW 11:32:42 10° NE daylight
24 Aug - 16:20:06 10° NNW 16:22:13 16° NNE 16:24:21 10° ENE daylight
24 Aug - 17:55:43 10° NW 17:58:58 72° SW 18:02:11 10° SE daylight
25 Aug - 10:33:15 10° SW 10:36:30 72° NW 10:39:46 10° NE daylight
25 Aug - 12:11:49 10° NW 12:13:25 13° NNW 12:15:02 10° N daylight
25 Aug - 15:27:46 10° N 15:28:50 11° NNE 15:29:55 10° NE daylight
25 Aug - 17:02:40 10° NW 17:05:52 52° NE 17:09:03 10° ESE daylight
25 Aug - 18:40:23 10° W 18:41:56 13° SW 18:43:31 10° SSW daylight
26 Aug - 09:40:17 10° SSW 09:43:26 51° SE 09:46:37 10° ENE daylight
26 Aug - 11:17:38 10° WNW 11:20:03 19° NNW 11:22:29 10° NNE daylight
26 Aug - 16:09:47 10° NNW 16:12:40 28° NNE 16:15:32 10° E daylight
26 Aug - 17:46:14 10° WNW 17:49:02 26° SW 17:51:48 10° SSE daylight
27 Aug - 08:47:47 10° S 08:50:27 24° SE 08:53:08 10° ENE daylight
27 Aug - 10:23:49 10° W 10:26:46 31° NNW 10:29:43 10° NNE daylight
27 Aug - 15:17:03 10° NNW 15:19:22 18° NNE 15:21:40 10° ENE daylight
27 Aug - 16:52:49 10° WNW 16:56:01 58° SW 16:59:13 10° SE daylight
28 Aug - 07:56:22 10° SSE 07:57:32 11° SE 07:58:42 10° ESE daylight
28 Aug - 09:30:20 10° WSW 09:33:33 59° NW 09:36:47 10° NE daylight
28 Aug - 11:09:14 10° NW 11:10:32 12° NNW 11:11:51 10° N daylight
28 Aug - 14:24:33 10° N 14:25:57 12° NNE 14:27:23 10° NE daylight
28 Aug - 15:59:40 10° NW 16:02:55 64° NE 16:06:08 10° ESE daylight
28 Aug - 17:38:09 10° WSW 17:38:54 11° SW 17:39:40 10° SW daylight
29 Aug - 08:37:13 10° SW 08:40:26 63° SE 08:43:39 10° NE daylight
29 Aug - 10:14:52 10° WNW 10:17:07 17° NNW 10:19:22 10° NNE daylight
29 Aug - 15:06:43 10° NNW 15:09:42 32° NNE 15:12:40 10° E daylight
29 Aug - 16:43:23 10° WNW 16:45:59 22° SW 16:48:34 10° S daylight
30 Aug - 07:44:31 10° SSW 07:47:23 28° SE 07:50:14 10° ENE daylight
30 Aug - 09:20:56 10° W 09:23:45 27° NNW 09:26:36 10° NNE daylight
30 Aug - 14:13:53 10° NNW 14:16:23 20° NNE 14:18:51 10° ENE daylight
30 Aug - 15:49:48 10° WNW 15:52:57 47° SW 15:56:05 10° SSE daylight
31 Aug - 06:52:38 10° SSE 06:54:24 14° SE 06:56:10 10° E daylight
31 Aug - 08:27:19 10° WSW 08:30:29 49° NW 08:33:40 10° NE daylight
31 Aug - 10:06:37 10° NW 10:07:32 11° NNW 10:08:28 10° N daylight
31 Aug - 13:21:16 10° N 13:22:57 13° NNE 13:24:38 10° NE daylight
31 Aug - 14:56:34 10° NW 14:59:50 78° NE 15:03:04 10° SE daylight
01 Sep - 07:34:04 10° SW 07:37:18 78° SE 07:40:34 10° NE daylight
01 Sep - 09:12:00 10° WNW 09:14:04 15° NNW 09:16:07 10° NNE daylight
01 Sep - 14:03:31 10° NW 14:06:36 38° NE 14:09:39 10° ESE daylight
01 Sep - 15:40:28 10° W 15:42:48 18° SW 15:45:08 10° S daylight
